Regional Weather Roundup
Issued by NWS

Home | Current Version | Previous Version | Text Only | Print | Product List | Glossary On
Versions: 1 2 3 4 5 6 7 8 9 10 11 12 13 14 15 16 17 18 19 20 21 22 23 24 25 26 27 28 29 30 31 32 33 34 35 36 37 38 39 40 41 42 43 44 45 46 47 48 49 50
000
ASUS46 KPQR 210910
RWROR

OREGON REGIONAL WEATHER ROUNDUP
NATIONAL WEATHER SERVICE PORTLAND OR
200 AM PDT THU AUG 21 2014

NOTE: "FAIR" INDICATES FEW OR NO CLOUDS BELOW 12,000 FEET WITH
NO SIGNIFICANT WEATHER AND/OR OBSTRUCTIONS TO VISIBILITY.

ORZ001>013-211000-
NORTHWEST OREGON


CITY           SKY/WX    TMP DP  RH WIND       PRES   REMARKS
ASTORIA        MOCLDY    53  50  89 W5        30.05R
NEWPORT          N/A     46  46 100 CALM      30.08R
PORTLAND       CLEAR     59  52  77 N7        30.04R
VANCOUVER WA   CLEAR     59  50  72 CALM      30.03R
SCAPPOOSE      CLEAR     56  50  80 N5        30.03R
HILLSBORO      CLEAR     55  50  83 NW5       30.03R
AURORA         CLEAR     56  48  74 N3        30.04R
MCMINNVILLE    CLEAR     56  50  80 NW3       30.04R
SALEM          CLEAR     57  49  74 CALM      30.02R
CORVALLIS      CLEAR     55  50  82 W10       30.04S
EUGENE         CLEAR     54  47  77 CALM      30.03R
$$

ORZ021-028-211000-
SOUTHWEST OREGON


CITY           SKY/WX    TMP DP  RH WIND       PRES   REMARKS
NORTH BEND     NOT AVBL
ROSEBURG       CLEAR     61  51  70 CALM      30.01S
SEXTON SUMMIT  CLEAR     53  48  83 N12       30.06S
MEDFORD        CLEAR     64  51  62 CALM      29.99S
$$

ORZ009-041-211000-
COLUMBIA GORGE


CITY           SKY/WX    TMP DP  RH WIND       PRES   REMARKS
TROUTDALE      CLEAR     59  51  75 CALM      30.02R
THE DALLES     CLEAR     66  50  56 NW15      29.92R
$$

ORZ029>031-042>050-061>064-211000-
EASTERN OREGON


CITY           SKY/WX    TMP DP  RH WIND       PRES   REMARKS
REDMOND        CLEAR     44  38  79 S3        30.01S
BEND           SUNNY     48  41  76 CALM      30.05R
KLAMATH FALLS  CLEAR     52  46  80 SE5       30.06R
LAKEVIEW       CLEAR     54  39  58 NW10      30.08R
HERMISTON      CLEAR     65  47  52 SW15      29.90R
PENDLETON      CLEAR     60  42  51 SE6       29.93R
JOHN DAY       SUNNY     56  33  40 W6        30.02R
MEACHAM        CLEAR     40  35  83 CALM      30.01S
LA GRANDE      CLEAR     55  30  38 NW7       29.95S
BAKER CITY     CLEAR     48  33  56 SW6       29.97S
BURNS          CLEAR     52  33  48 NW5       30.02R
ROME             N/A     67  44  43 N6        29.96R
ONTARIO        CLEAR     66  35  31 S7        29.89R
$$



USA.gov is the U.S. government's official web portal to all federal, state and local government web resources and services.